Limon, CO

9:32 AM MST on February 23, 2018 (GMT -0700)
Limon Municipal

Weather History for KLIC - April, 2014

Change the Weather History Date:

Sunday, April 6, 2014

  Actual Average Record
Temperature  
Mean Temperature 40 °F -  
Max Temperature 56 °F - 75 °F (2015)
Min Temperature 23 °F - 9 °F (1997)
Degree Days  
Heating Degree Days 25    
Month to date heating degree days 149  
Cooling Degree Days 0    
Month to date cooling degree days 0  
Moisture  
Dew Point 27 °F    
Average Humidity 63    
Maximum Humidity 100    
Minimum Humidity 26    
Precipitation  
Precipitation T in - 0.31 in (1998)
Month to date precipitation 0.27  
Year to date precipitation 1.71  
Sea Level Pressure  
Sea Level Pressure 29.84 in    
Wind  
Wind Speed 9 mph (NNW)    
Max Wind Speed 39 mph    
Max Gust Speed 47 mph    
Visibility 10 miles    
Events Rain    
T = Trace of Precipitation, MM = Missing Value Source: NWS Daily Summary

Daily Weather History Graph

Daily Weather History Graph

Search for Another Location

Airport or City:

Trip Planner

Search our weather history database for the weather conditions in past years. The results will help you decide how hot, cold, wet, or windy it might be!

Date:

Astronomy

Apr. 06, 2014 Rise Set
Actual Time 6:31 AM MDT 7:23 PM MDT
Civil Twilight 6:04 AM MDT 7:50 PM MDT
Nautical Twilight 5:31 AM MDT 8:23 PM MDT
Astronomical Twilight 4:58 AM MDT 8:56 PM MDT
Moon 11:35 AM MDT (4/6) 1:19 AM MDT (4/6)
Length of Visible Light 13h 46m
Length of Day
12h 52m
Waxing Crescent, 44% of the Moon is Illuminated
Apr 6
Waxing Crescent
Apr 7
First Quarter
Apr 15
Full
Apr 22
Last Quarter
Apr 29
New

Hourly Weather History & Observations

Time (MDT) Temp. Windchill Dew Point Humidity Pressure Visibility Wind Dir Wind Speed Gust Speed Precip Events Conditions
12:55 AM 37.0 °F 31.6 °F 32.0 °F 82% 29.84 in 10.0 mi SE 6.9 mph - N/A   Overcast
1:55 AM 36.0 °F 33.3 °F 30.9 °F 82% 29.82 in 10.0 mi ESE 3.5 mph - N/A   Mostly Cloudy
2:55 AM 28.9 °F 25.2 °F 27.0 °F 92% 29.84 in 10.0 mi NNW 3.5 mph - N/A   Clear
3:55 AM 27.0 °F 21.6 °F 26.1 °F 96% 29.83 in 10.0 mi NW 4.6 mph - N/A   Clear
4:55 AM 24.1 °F - 21.9 °F 91% 29.86 in 10.0 mi Calm Calm - N/A   Clear
5:55 AM 25.0 °F 20.7 °F 23.0 °F 92% 29.86 in 10.0 mi NW 3.5 mph - N/A   Clear
6:55 AM 30.9 °F 23.5 °F 28.0 °F 89% 29.86 in 10.0 mi NNW 8.1 mph - N/A   Clear
7:55 AM 37.9 °F 33.5 °F 33.1 °F 83% 29.86 in 10.0 mi North 5.8 mph - N/A   Clear
8:55 AM 44.1 °F 36.5 °F 32.0 °F 63% 29.84 in 10.0 mi NNW 17.3 mph - N/A   Clear
9:55 AM 48.0 °F - 28.9 °F 48% 29.83 in 10.0 mi NNW 19.6 mph - N/A   Partly Cloudy
10:55 AM 50.0 °F - 28.9 °F 44% 29.83 in 10.0 mi North 20.7 mph 26.5 mph N/A   Clear
11:55 AM 51.1 °F - 27.0 °F 39% 29.83 in 10.0 mi North 19.6 mph 26.5 mph N/A   Mostly Cloudy
12:55 PM 52.0 °F - 25.0 °F 35% 29.79 in 10.0 mi North 10.4 mph - N/A   Mostly Cloudy
1:55 PM 53.1 °F - 19.9 °F 27% 29.78 in 10.0 mi North 16.1 mph 24.2 mph N/A   Mostly Cloudy
2:55 PM 53.1 °F - 23.0 °F 31% 29.79 in 10.0 mi North 12.7 mph 28.8 mph N/A   Mostly Cloudy
3:55 PM 55.0 °F - 21.9 °F 28% 29.78 in 10.0 mi North 18.4 mph 26.5 mph N/A   Partly Cloudy
4:55 PM 44.1 °F 33.8 °F 32.0 °F 63% 29.88 in 10.0 mi NNW 31.1 mph 42.6 mph 0.00 in Rain Light Rain
5:55 PM 48.0 °F - 26.1 °F 42% 29.85 in 10.0 mi North 5.8 mph - 0.00 in   Overcast
6:55 PM 45.0 °F 41.8 °F 28.0 °F 52% 29.84 in 10.0 mi NW 5.8 mph - N/A   Mostly Cloudy
7:55 PM 43.0 °F 36.0 °F 24.1 °F 47% 29.85 in 10.0 mi NNW 13.8 mph - N/A   Scattered Clouds
8:55 PM 41.0 °F 33.9 °F 25.0 °F 53% 29.87 in 10.0 mi WNW 12.7 mph - N/A   Mostly Cloudy
9:55 PM 36.0 °F 29.0 °F 26.1 °F 67% 29.90 in 10.0 mi NNW 9.2 mph - N/A   Partly Cloudy
10:55 PM 34.0 °F 28.0 °F 26.1 °F 73% 29.90 in 10.0 mi WNW 6.9 mph - N/A   Partly Cloudy
11:55 PM 28.9 °F 21.1 °F 25.0 °F 85% 29.93 in 10.0 mi North 8.1 mph - N/A   Clear